Content
SEND FEEDBACK

Daily
Averages
Monthly
Summary
United States of America

MILAN, MICHIGAN


Home > North America > United States > Michigan
Elevation: 660 feet     Latitude: 42 05N     Longitude: 083 35W

WEATHER
 
SELECT A DAY
Number of Records: 206,697;   Date Range: 1/1/95 - 11/24/14
 
SHARE

PRINT THIS DATA

[ ← Previous Day ]
WEATHER ALMANAC - JANUARY 28, 2013
[ Next Day → ]
[ °C ]   °F
Weather ElementAverageHighLow
Temperature39 °F45 °F (3:53 pm)33.1 °F (12:53 am)
Dewpoint35.4 °F42.8 °F (5:25 pm)26.6 °F (12:24 am)
Humidity86.8 %93 % (7:41 am)75 % (12:24 am)
Barometer29.98 in30.13 in (12:24 am)29.86 in (1:16 pm)
Wind Speed9.2 mph16.1 mph (12:24 am)
Wind Gust24.2 mph (12:24 am)
Weather ElementAverage
Visibility2.1 mi
Wind DirectionSW (220.2 °)

Weather ElementTotal
Precipitation0.90 in
Heating Degree Days26 (Base 65)
Averaged from 51 records on January 28, 2013
WEATHER CONDITIONS BREAKOUT
WIND DIRECTION BREAKOUT
WEATHER BY HOUR - JANUARY 28, 2013
[ °C ]   °F
Local TimeTemperatureDewpointHumidityBarometerVisibilityWind DirectionWind SpeedGust SpeedPrecipitationEventsConditions
12:24 AM33.8 °F26.6 °F75 %30.13 in2.5 miSSE (150°)16.1 mph24.2 mphRainLight Freezing Rain
12:53 AM33.1 °F28.0 °F82 %30.13 in2.5 miSSE (150°)15.0 mphRainLight Freezing Rain
1:03 AM33.8 °F28.4 °F81 %30.10 in2.5 miSSE (150°)15.0 mph0.03 inRainLight Freezing Rain
1:12 AM33.8 °F28.4 °F81 %30.10 in3.0 miSSE (150°)15.0 mph0.04 inRainLight Freezing Rain
1:39 AM33.8 °F28.4 °F81 %30.09 in5.0 miSSE (150°)11.5 mph0.05 inRainLight Freezing Rain
1:49 AM33.8 °F28.4 °F81 %30.08 in5.0 miSSE (150°)11.5 mph0.05 inHaze
1:53 AM34.0 °F28.0 °F79 %30.09 in5.0 miSSE (150°)13.8 mph0.05 inHaze
2:53 AM34.0 °F28.9 °F82 %30.06 in3.0 miSSE (160°)10.4 mph0.00 inRainLight Freezing Rain
3:06 AM33.8 °F30.2 °F87 %30.03 in2.5 miSSE (150°)11.5 mph0.00 inRainLight Freezing Rain
3:46 AM33.8 °F30.2 °F87 %30.02 in1.5 miSSE (160°)6.9 mph0.01 inRainLight Freezing Rain
3:53 AM34.0 °F30.0 °F85 %30.04 in1.2 miSSE (160°)6.9 mph0.01 inRainLight Freezing Rain
4:11 AM33.8 °F30.2 °F87 %30.01 in1.0 miSSE (150°)6.9 mph0.00 inRainLight Freezing Rain
4:53 AM35.1 °F30.9 °F85 %30.00 in1.2 miSouth (170°)6.9 mph0.01 inRainLight Freezing Rain
5:53 AM35.1 °F32.0 °F89 %29.97 in1.0 miSouth (180°)8.1 mph0.01 inRainLight Freezing Rain
6:17 AM35.6 °F32.0 °F87 %29.95 in0.8 miSouth (190°)6.9 mph0.01 inRainLight Freezing Rain
6:53 AM36.0 °F32.0 °F86 %29.94 in0.5 miSouth (180°)6.9 mph0.02 inRainLight Freezing Rain
7:41 AM35.6 °F33.8 °F93 %29.92 in0.2 miSouth (190°)5.8 mph0.02 inRainLight Freezing Rain
7:53 AM36.0 °F33.1 °F89 %29.93 in0.2 miSouth (190°)5.8 mph0.02 inRainLight Freezing Rain
8:53 AM39.0 °F35.1 °F86 %29.91 in0.2 miSSW (210°)11.5 mph0.04 inRainLight Freezing Rain
9:53 AM39.9 °F37.0 °F89 %29.90 in0.2 miSW (220°)13.8 mph0.11 inRainLight Freezing Rain
10:01 AM39.2 °F37.4 °F93 %29.89 in0.8 miSW (220°)12.7 mph0.03 inRainLight Freezing Rain
10:10 AM39.2 °F37.4 °F93 %29.89 in1.2 miSW (220°)12.7 mph0.05 inRainLight Freezing Rain
10:53 AM41.0 °F37.9 °F89 %29.91 in1.0 miSW (220°)13.8 mph0.15 inRainLight Freezing Rain
11:11 AM41.0 °F37.4 °F87 %29.90 in0.8 miSW (220°)13.8 mph0.05 inRainLight Freezing Rain
11:53 AM42.1 °F39.0 °F89 %29.90 in0.5 miSW (220°)13.8 mph0.12 inRainLight Freezing Rain
12:04 PM42.8 °F39.2 °F87 %29.89 in0.2 miSW (220°)13.8 mph0.01 inRainLight Freezing Rain
12:53 PM42.1 °F39.9 °F92 %29.88 in0.2 miSW (220°)12.7 mph0.01 inRainLight Freezing Rain
1:16 PM42.8 °F39.2 °F87 %29.86 in0.2 miSW (220°)12.7 mph0.00 inFogFog
1:53 PM44.1 °F39.9 °F85 %29.87 in0.2 miSW (220°)12.7 mph0.00 inFogFog
2:53 PM44.1 °F41.0 °F89 %29.88 in0.2 miSW (220°)11.5 mphFogFog
3:53 PM45.0 °F41.0 °F86 %29.89 in0.2 miSW (220°)10.4 mphFogFog
4:53 PM44.1 °F41.0 °F89 %29.91 in0.2 miSW (230°)8.1 mphFogFog
5:07 PM44.6 °F41.0 °F87 %29.91 in0.2 miWSW (250°)8.1 mphFogFog
5:25 PM44.6 °F42.8 °F93 %29.92 in1.0 miWSW (250°)9.2 mphOvercast
5:51 PM44.6 °F42.8 °F93 %29.93 in2.0 miWest (260°)9.2 mphOvercast
5:53 PM45.0 °F42.1 °F90 %29.94 in3.0 miWest (270°)11.5 mphOvercast
6:27 PM44.6 °F41.0 °F87 %29.95 in5.0 miWNW (290°)5.8 mphOvercast
6:35 PM44.6 °F41.0 °F87 %29.96 in4.0 miWNW (300°)6.9 mphOvercast
6:53 PM43.0 °F39.9 °F89 %29.97 in4.0 miWNW (300°)6.9 mphOvercast
7:53 PM42.1 °F39.0 °F89 %30.00 in4.0 miNW (310°)8.1 mphOvercast
8:26 PM41.0 °F37.4 °F87 %30.00 in2.0 miNNW (330°)5.8 mphOvercast
8:39 PM41.0 °F37.4 °F87 %30.00 in2.0 miNW (320°)8.1 mphOvercast
8:53 PM39.9 °F37.0 °F89 %30.02 in2.5 miNW (310°)6.9 mphOvercast
9:11 PM39.2 °F37.4 °F93 %30.01 in1.5 miNNW (340°)4.6 mphOvercast
9:53 PM39.0 °F36.0 °F89 %30.02 in1.8 miNNW (340°)3.5 mphOvercast
10:02 PM39.2 °F35.6 °F87 %30.01 in2.0 miNNW (330°)4.6 mphOvercast
10:13 PM39.2 °F35.6 °F87 %30.01 in3.0 miNNW (340°)5.8 mphOvercast
10:53 PM39.0 °F34.0 °F82 %30.03 in6.0 miNNW (340°)6.9 mphHaze
11:01 PM39.2 °F33.8 °F81 %30.02 in6.0 miNNW (340°)4.6 mphHaze
11:46 PM37.4 °F33.8 °F87 %30.02 in5.0 miCalmOvercast
11:53 PM37.9 °F34.0 °F86 %30.03 in5.0 miCalmOvercast
Hourly data recorded from KYIP, located miles away from Milan, Michigan







STORIES FROM OUR PARTNERS